Location: Gaast
(52.9002°N, 5.8891°E)
Time: 06:50:50
(UTC+00:00)

Tsikada Rocket - Pass Details

Date: 18 November 2025
Orbit: 957 x 1008 km, 82.9° (Epoch: 11 December)

Event Time Altitude Azimuth Distance (km) Brightness Sun altitude
Rises 16:25:12 0° 349° (N) 3,753 6.9 -7.2°
Reaches altitude 10° 16:27:46 10° 350° (N) 2,797 6.3 -7.6°
Maximum altitude 16:34:13 85° 79° (E) 1,014 4.1 -8.5°
Drops below altitude 10° 16:40:35 10° 169° (S) 2,755 6.5 -9.4°
Sets 16:43:05 0° 170° (S) 3,693 7.2 -9.8°
